Farmville, VA

6:42 AM EST on December 13, 2017 (GMT -0500)
Farmville Regional

Weather History for KFVX - June, 2013

Change the Weather History Date:

Thursday, June 20, 2013

  Actual Average Record
Temperature  
Mean Temperature 73 °F -  
Max Temperature 82 °F 86 °F 99 °F (1933)
Min Temperature 64 °F 63 °F 46 °F (1959)
Cooling Degree Days 8    
Growing Degree Days 23 (Base 50)    
Moisture  
Dew Point 59 °F    
Average Humidity 66    
Maximum Humidity 100    
Minimum Humidity 39    
Precipitation  
Precipitation 0.00 in - - ()
Sea Level Pressure  
Sea Level Pressure 30.22 in    
Wind  
Wind Speed 1 mph (ESE)    
Max Wind Speed 7 mph    
Max Gust Speed -    
Visibility 8 miles    
Events Fog    
Averages and records for this station are not official NWS values.
T = Trace of Precipitation, MM = Missing Value Source: NWS Daily Summary

Daily Weather History Graph

Daily Weather History Graph

Search for Another Location

Airport or City:

Trip Planner

Search our weather history database for the weather conditions in past years. The results will help you decide how hot, cold, wet, or windy it might be!

Date:

Astronomy

Jun. 20, 2013 Rise Set
Actual Time 5:53 AM EDT 8:37 PM EDT
Civil Twilight 5:22 AM EDT 9:08 PM EDT
Nautical Twilight 4:43 AM EDT 9:47 PM EDT
Astronomical Twilight 3:59 AM EDT 10:31 PM EDT
Moon 5:39 PM EDT (6/20) 3:15 AM EDT (6/20)
Length of Visible Light 15h 46m
Length of Day
14h 44m
Waxing Gibbous, 89% of the Moon is Illuminated
Jun 20
Waxing Gibbous
Jun 23
Full
Jun 30
Last Quarter
Jul 8
New
Jul 15
First Quarter

Hourly Weather History & Observations

Time (EDT) Temp. Heat Index Dew Point Humidity Pressure Visibility Wind Dir Wind Speed Gust Speed Precip Events Conditions
12:15 AM 66.2 °F - 64.4 °F 94% 30.14 in 2.0 mi Calm Calm - N/A   Mostly Cloudy
12:35 AM 64.4 °F - 64.4 °F 100% 30.15 in 1.5 mi Calm Calm - N/A   Mist
12:55 AM 64.4 °F - 64.4 °F 100% 30.16 in 2.0 mi Calm Calm - N/A   Clear
1:15 AM 64.4 °F - 64.4 °F 100% 30.16 in 2.0 mi Calm Calm - N/A   Clear
1:35 AM 64.4 °F - 62.6 °F 94% 30.16 in 1.0 mi Calm Calm - N/A   Mist
1:55 AM 64.4 °F - 62.6 °F 94% 30.17 in 2.0 mi Calm Calm - N/A   Clear
2:15 AM 64.4 °F - 64.4 °F 100% 30.16 in 0.5 mi Calm Calm - N/A Fog Fog
2:35 AM 64.4 °F - 64.4 °F 100% 30.16 in 1.0 mi Calm Calm - N/A   Overcast
2:55 AM 64.4 °F - 64.4 °F 100% 30.16 in 3.0 mi Calm Calm - N/A   Overcast
3:15 AM 66.2 °F - 64.4 °F 94% 30.17 in 3.0 mi Calm Calm - N/A   Overcast
3:35 AM 66.2 °F - 66.2 °F 100% 30.18 in 5.0 mi Calm Calm - N/A   Overcast
3:55 AM 66.2 °F - 64.4 °F 94% 30.18 in 4.0 mi Calm Calm - N/A   Overcast
4:15 AM 66.2 °F - 64.4 °F 94% 30.18 in 4.0 mi Calm Calm - N/A   Overcast
4:35 AM 66.2 °F - 64.4 °F 94% 30.18 in 5.0 mi Calm Calm - N/A   Overcast
4:55 AM 66.2 °F - 64.4 °F 94% 30.18 in 5.0 mi Calm Calm - N/A   Overcast
5:15 AM 66.2 °F - 64.4 °F 94% 30.19 in 5.0 mi Calm Calm - N/A   Overcast
5:35 AM 64.4 °F - 64.4 °F 100% 30.19 in 4.0 mi Calm Calm - N/A   Mostly Cloudy
5:55 AM 66.2 °F - 64.4 °F 94% 30.20 in 5.0 mi Calm Calm - N/A   Overcast
6:15 AM 64.4 °F - 62.6 °F 94% 30.20 in 5.0 mi Calm Calm - N/A   Mostly Cloudy
6:35 AM 64.4 °F - 64.4 °F 100% 30.21 in 4.0 mi Calm Calm - N/A   Overcast
6:55 AM 66.2 °F - 64.4 °F 94% 30.22 in 7.0 mi Calm Calm - N/A   Mostly Cloudy
7:15 AM 68.0 °F - 64.4 °F 88% 30.22 in 7.0 mi Calm Calm - N/A   Mostly Cloudy
7:35 AM 68.0 °F - 64.4 °F 88% 30.22 in 7.0 mi Calm Calm - N/A   Overcast
7:55 AM 66.2 °F - 64.4 °F 94% 30.23 in 10.0 mi Calm Calm - N/A   Mostly Cloudy
8:15 AM 66.2 °F - 64.4 °F 94% 30.24 in 10.0 mi Calm Calm - N/A   Mostly Cloudy
8:35 AM 69.8 °F - 62.6 °F 78% 30.25 in 10.0 mi Calm Calm - N/A   Scattered Clouds
8:55 AM 69.8 °F - 55.4 °F 60% 30.25 in 10.0 mi SE 3.5 mph - N/A   Mostly Cloudy
9:15 AM 71.6 °F - 55.4 °F 57% 30.25 in 10.0 mi Calm Calm - N/A   Overcast
9:35 AM 73.4 °F - 53.6 °F 50% 30.25 in 10.0 mi SE 3.5 mph - N/A   Mostly Cloudy
9:55 AM 73.4 °F - 53.6 °F 50% 30.26 in 10.0 mi SE 4.6 mph - N/A   Scattered Clouds
10:15 AM 73.4 °F - 51.8 °F 47% 30.26 in 1.5 mi SSE 3.5 mph - N/A   Haze
10:35 AM 75.2 °F - 50.0 °F 41% 30.26 in 10.0 mi ESE 3.5 mph - N/A   Overcast
10:55 AM 77.0 °F - 51.8 °F 41% 30.26 in 10.0 mi East 6.9 mph - N/A   Scattered Clouds
11:15 AM 75.2 °F - 53.6 °F 47% 30.26 in 10.0 mi Calm Calm - N/A   Clear
11:35 AM 78.8 °F - 53.6 °F 42% 30.26 in 10.0 mi East 5.8 mph - N/A   Clear
11:55 AM 78.8 °F - 51.8 °F 39% 30.26 in 10.0 mi SSE 3.5 mph - N/A   Clear
12:15 PM 78.8 °F - 51.8 °F 39% 30.26 in 10.0 mi Calm Calm - N/A   Scattered Clouds
12:35 PM 77.0 °F - 51.8 °F 41% 30.26 in 10.0 mi Calm Calm - N/A   Scattered Clouds
12:55 PM 80.6 °F 80.3 °F 53.6 °F 39% 30.26 in 10.0 mi ESE 4.6 mph - N/A   Scattered Clouds
1:15 PM 80.6 °F 80.3 °F 53.6 °F 39% 30.26 in 10.0 mi Calm Calm - N/A   Scattered Clouds
1:35 PM 78.8 °F - 53.6 °F 42% 30.25 in 10.0 mi Calm Calm - N/A   Mostly Cloudy
1:55 PM 78.8 °F - 55.4 °F 44% 30.25 in 10.0 mi SE 3.5 mph - N/A   Overcast
2:15 PM 80.6 °F 80.3 °F 53.6 °F 39% 30.24 in 10.0 mi SE 3.5 mph - N/A   Overcast
2:35 PM 80.6 °F 80.5 °F 55.4 °F 42% 30.24 in 10.0 mi Calm Calm - N/A   Overcast
2:55 PM 82.4 °F 81.7 °F 55.4 °F 39% 30.24 in 10.0 mi Calm Calm - N/A   Mostly Cloudy
3:15 PM 82.4 °F 81.7 °F 55.4 °F 39% 30.24 in 10.0 mi ESE 5.8 mph - N/A   Mostly Cloudy
3:35 PM 80.6 °F 80.5 °F 55.4 °F 42% 30.23 in 10.0 mi East 3.5 mph - N/A   Mostly Cloudy
3:55 PM 80.6 °F 80.5 °F 55.4 °F 42% 30.23 in 10.0 mi Calm Calm - N/A   Scattered Clouds
4:15 PM 82.4 °F 81.7 °F 55.4 °F 39% 30.22 in 7.0 mi East 4.6 mph - N/A   Scattered Clouds
4:35 PM 82.4 °F 82.0 °F 57.2 °F 42% 30.21 in 10.0 mi East 4.6 mph - N/A   Clear
4:55 PM 80.6 °F 80.8 °F 57.2 °F 45% 30.21 in 10.0 mi East 3.5 mph - N/A   Scattered Clouds
5:15 PM 80.6 °F 80.8 °F 57.2 °F 45% 30.21 in 10.0 mi Calm Calm - N/A   Clear
5:35 PM 82.4 °F 82.0 °F 57.2 °F 42% 30.20 in 10.0 mi Calm Calm - N/A   Scattered Clouds
5:55 PM 82.4 °F 81.7 °F 55.4 °F 39% 30.20 in 10.0 mi East 4.6 mph - N/A   Mostly Cloudy
6:15 PM 80.6 °F 80.8 °F 57.2 °F 45% 30.20 in 10.0 mi ESE 3.5 mph - N/A   Scattered Clouds
6:35 PM 80.6 °F 80.8 °F 57.2 °F 45% 30.20 in 10.0 mi East 4.6 mph - N/A   Clear
6:55 PM 80.6 °F 80.8 °F 57.2 °F 45% 30.20 in 10.0 mi East 3.5 mph - N/A   Clear
7:15 PM 80.6 °F 81.5 °F 60.8 °F 51% 30.21 in 10.0 mi Calm Calm - N/A   Clear
7:35 PM 77.0 °F - 62.6 °F 61% 30.21 in 10.0 mi Calm Calm - N/A   Clear
7:55 PM 73.4 °F - 62.6 °F 69% 30.22 in 10.0 mi Calm Calm - N/A   Clear
8:15 PM 73.4 °F - 60.8 °F 65% 30.22 in 10.0 mi Calm Calm - N/A   Clear
8:35 PM 73.4 °F - 60.8 °F 65% 30.22 in 10.0 mi Calm Calm - N/A   Clear
8:55 PM 73.4 °F - 60.8 °F 65% 30.23 in 10.0 mi Calm Calm - N/A   Clear
9:15 PM 73.4 °F - 60.8 °F 65% 30.23 in 10.0 mi Calm Calm - N/A   Clear
9:35 PM 71.6 °F - 59.0 °F 64% 30.23 in 10.0 mi Calm Calm - N/A   Clear
9:55 PM 71.6 °F - 57.2 °F 60% 30.24 in 10.0 mi Calm Calm - N/A   Clear
10:15 PM 69.8 °F - 55.4 °F 60% 30.25 in 10.0 mi Calm Calm - N/A   Clear
10:35 PM 69.8 °F - 53.6 °F 56% 30.25 in 10.0 mi Calm Calm - N/A   Clear
10:55 PM 69.8 °F - 51.8 °F 53% 30.25 in 10.0 mi Calm Calm - N/A   Clear
11:15 PM 68.0 °F - 50.0 °F 52% 30.26 in 10.0 mi Calm Calm - N/A   Clear
11:35 PM 66.2 °F - 51.8 °F 60% 30.26 in 10.0 mi Calm Calm - N/A   Clear
11:55 PM 66.2 °F - 51.8 °F 60% 30.26 in 10.0 mi Calm Calm - N/A   Mostly Cloudy